Wind_Speed
20 21 25 26 23 23 21 19 17 15 14 14 14 14 13 11 10 10 9 8 8 8 8 8 8 8 7 8 9 9 11 12 12 11 12 12 12 12 12 12 12 13 12 13 12 13 12 12 12 12 11 11 11 11 11 11 11 11 11 12 13 14 15 17 18 19 20 20 20 19 18 17 17 16 15 15 15 15 14 13 14 12 13 14 14
20 22 26 26 24 23 21 19 17 16 14 14 14 14 13 11 10 10 9 9 8 8 8 8 8 7 7 8 9 10 11 12 12 12 12 12 12 12 12 12 12 12 12 12 12 12 12 12 12 12 12 11 11 11 11 11 10 10 11 12 14 16 17 18 19 20 20 20 20 19 17 16 16 15 14 14 14 14 13 13 12 12 13 13 12
16 22 27 26 25 23 22 20 18 16 15 14 14 14 13 12 11 10 10 9 9 8 8 8 7 7 8 9 9 10 11 12 12 12 12 11 12 12 12 12 12 12 12 12 12 12 11 11 11 11 11 11 11 11 10 10 9 9 11 13 16 17 18 19 20 20 19 18 18 18 17 15 14 14 13 13 13 12 12 11 11 12 12 12 11
12 22 29 27 26 24 22 20 19 17 15 15 14 14 13 12 11 11 10 10 9 9 8 8 8 7 8 9 10 11 11 11 11 12 11 11 11 12 12 11 11 11 11 11 11 11 10 10 10 11 11 11 10 10 9 9 9 10 12 15 17 18 19 20 20 21 20 19 17 17 16 14 13 12 12 12 11 11 10 10 11 12 12 12 11
11 22 29 28 26 25 23 21 19 17 16 15 15 14 14 13 12 11 11 10 9 9 9 9 8 8 9 10 11 11 11 10 10 11 11 11 11 11 11 11 10 11 11 11 11 10 10 9 10 11 11 11 10 9 9 9 10 12 15 16 17 17 18 20 21 21 19 18 16 15 13 12 12 11 11 10 10 10 10 10 11 12 12 12 12
12 21 30 29 27 25 23 21 20 18 17 15 15 15 14 13 12 12 11 11 10 10 10 9 8 8 9 10 11 10 10 9 9 10 10 10 10 10 10 10 10 10 10 10 9 9 9 9 10 11 11 11 10 10 10 11 13 15 16 16 16 17 18 19 20 19 17 15 13 11 8 10 11 10 10 9 9 10 10 10 10 11 12 12 12
12 20 31 29 27 26 24 22 20 19 17 16 16 15 14 14 13 12 11 11 10 10 10 9 9 9 9 10 11 10 9 9 9 9 9 9 9 10 10 10 10 10 9 9 8 8 8 9 10 11 11 10 11 11 12 13 14 15 16 16 16 16 17 17 17 17 16 14 12 11 3 8 10 9 9 9 9 9 9 9 10 11 12 12 12
12 19 31 29 27 26 25 23 21 20 18 17 16 15 15 14 13 12 12 11 11 11 10 10 9 9 9 10 11 10 9 8 9 9 9 9 9 9 10 10 10 10 8 7 7 7 7 8 9 10 11 11 11 12 13 14 14 15 15 15 15 15 15 15 16 15 15 14 11 10 3 7 8 9 8 8 8 8 9 9 9 11 11 11 12
11 21 31 29 28 26 25 23 21 20 18 17 16 16 15 14 14 13 12 12 11 11 11 11 10 9 10 11 11 10 9 9 9 9 9 9 9 9 9 10 9 8 7 6 6 7 7 8 9 10 11 11 11 12 13 13 14 14 14 14 15 15 15 15 15 14 14 13 8 7 3 6 8 9 8 8 8 8 8 8 9 10 10 11 11
10 23 31 28 27 26 24 23 21 20 19 18 16 16 15 14 14 13 12 12 12 12 11 11 10 10 10 11 11 11 10 10 10 10 10 9 9 9 9 9 8 7 6 6 5 6 8 9 9 10 10 10 11 11 12 12 13 13 13 14 14 14 14 15 15 14 14 10 6 5 3 6 8 8 8 8 7 7 7 7 8 9 9 9 9
13 23 30 29 26 26 24 23 22 20 19 18 17 16 15 15 14 14 13 12 12 12 12 11 11 10 10 11 11 11 11 11 11 10 10 9 9 8 8 8 7 6 5 5 5 7 9 10 10 10 10 10 10 10 11 11 12 12 12 12 12 12 12 14 14 14 13 7 7 5 4 5 7 7 6 7 6 6 6 6 7 7 8 8 8
18 22 27 29 26 26 25 23 22 20 19 18 17 16 15 15 14 14 13 12 12 12 12 11 11 10 10 10 10 11 11 11 11 10 9 9 8 9 8 7 6 5 4 4 6 9 10 11 10 10 10 10 10 10 10 10 10 10 11 11 10 10 10 12 13 13 11 5 6 1 5 6 6 6 5 5 5 5 5 5 5 5 6 6 7
21 20 24 28 27 26 25 23 22 20 19 18 17 16 15 14 14 14 13 12 12 12 11 11 11 10 10 10 10 10 10 10 11 10 10 9 9 9 8 7 6 4 4 5 7 10 11 11 10 10 10 10 9 9 9 9 9 9 9 9 8 9 9 11 12 12 8 4 5 2 5 5 4 4 4 4 4 4 4 4 4 4 5 5 5
23 23 21 24 28 27 25 24 22 21 19 18 17 16 15 14 14 14 13 13 12 12 11 11 11 10 10 10 9 9 9 10 10 11 11 9 10 9 8 7 6 5 5 7 9 11 11 11 10 10 10 10 9 9 8 8 8 8 8 8 8 9 9 8 10 12 5 3 3 4 5 4 4 4 4 4 4 4 4 4 4 4 4 4 4
23 25 20 21 28 28 26 25 22 21 19 18 17 15 15 14 14 14 14 13 12 12 11 11 11 10 9 9 8 8 9 9 10 11 11 10 10 10 9 7 6 5 6 8 11 11 11 11 10 10 10 9 8 8 7 7 7 7 6 7 7 7 6 5 8 10 3 2 2 4 4 6 5 4 5 4 4 5 5 5 4 4 4 4 4
22 22 21 20 28 30 27 25 23 21 19 18 16 15 14 14 14 14 14 13 12 12 11 11 10 9 9 8 8 8 9 9 10 11 11 10 10 10 9 7 6 6 7 10 11 11 11 11 11 10 10 9 8 7 6 6 6 6 5 5 5 4 4 5 7 8 3 1 1 5 4 6 6 5 7 6 7 7 6 6 6 6 5 5 5
22 22 22 22 28 31 29 27 24 22 19 17 15 14 13 13 14 14 14 13 12 12 12 11 10 10 9 8 8 8 8 9 11 12 12 11 10 10 9 7 6 6 9 11 12 11 11 10 10 10 10 9 8 7 6 5 5 5 4 4 4 4 5 6 5 6 3 1 2 7 7 7 7 7 8 8 9 9 9 9 8 8 7 7 6
21 20 19 22 29 31 31 29 26 22 20 18 15 14 13 13 14 14 14 13 12 12 12 11 11 10 9 8 8 8 8 9 11 12 13 12 11 10 10 8 7 7 9 11 12 11 11 10 10 9 9 8 7 6 5 4 4 3 3 2 3 2 3 4 3 5 1 4 3 8 10 9 9 9 9 9 10 10 11 10 10 9 9 8 8
19 16 14 20 27 29 30 30 27 25 22 20 18 15 13 13 13 14 14 13 12 12 12 11 11 10 10 9 8 9 8 9 9 11 13 13 12 11 11 9 8 8 9 10 10 10 10 9 8 8 8 8 7 6 5 4 3 2 2 1 0 1 1 2 3 6 5 6 4 8 11 11 10 10 10 10 10 11 11 10 10 9 9 9 9
17 15 15 21 23 24 28 30 28 26 24 21 20 17 15 13 13 13 14 13 12 12 12 11 11 10 10 9 9 9 9 10 9 11 13 14 13 12 12 10 10 9 9 9 9 9 8 7 7 7 6 6 6 6 5 4 3 2 2 2 2 2 1 1 2 5 5 6 8 11 12 12 11 12 12 11 11 11 11 11 10 9 9 8 8
19 17 18 22 24 22 25 29 28 26 25 22 21 19 17 15 14 14 14 14 13 12 12 12 11 10 9 9 9 9 11 11 11 12 12 13 14 13 12 11 10 10 10 10 9 8 7 7 6 6 5 4 4 3 2 2 1 3 5 6 6 4 2 1 4 3 3 6 11 13 13 13 13 14 15 13 12 11 11 11 10 10 9 8 9
21 18 19 23 25 23 23 26 27 25 24 23 22 20 19 17 15 15 15 15 14 13 13 12 11 10 10 9 9 10 10 10 11 13 13 14 15 14 13 12 11 10 10 10 9 8 7 7 6 5 4 2 2 2 3 2 4 7 8 10 10 7 4 3 5 6 4 6 10 12 13 14 15 16 17 16 13 11 10 10 10 10 10 9 10
22 21 21 23 25 23 21 23 25 25 23 21 20 20 20 18 17 17 17 16 15 15 14 13 12 11 11 9 10 9 7 8 10 12 13 15 15 14 14 12 11 10 9 9 9 8 7 6 5 4 3 2 1 4 4 4 6 8 9 12 12 8 4 2 5 8 6 7 10 11 12 14 16 17 18 17 13 11 10 10 10 10 11 10 11
24 24 22 24 26 22 20 21 23 23 22 20 18 19 21 19 18 18 19 18 17 16 15 15 13 12 11 10 10 8 6 7 7 10 13 14 15 15 15 13 11 10 9 9 8 7 6 5 4 1 1 1 2 5 6 8 9 8 9 12 12 9 8 6 7 9 7 8 11 13 14 15 16 17 17 17 13 12 11 11 11 11 11 11 12
25 25 23 25 26 23 21 21 22 22 21 19 18 19 21 19 18 19 19 18 18 18 17 16 14 12 11 10 10 9 8 8 9 11 13 14 16 16 15 13 11 10 9 8 7 6 4 3 3 2 4 3 3 5 7 8 10 9 11 12 11 9 9 8 8 10 9 9 12 15 15 16 17 17 15 14 13 13 13 12 13 13 13 13 13
27 26 25 26 27 23 22 23 23 22 21 19 17 18 20 20 19 19 20 19 19 18 17 16 14 13 12 12 13 13 13 12 13 13 14 14 15 16 15 13 12 11 9 8 7 6 3 1 1 3 5 5 6 7 7 8 11 10 11 12 10 10 10 8 8 9 8 8 12 14 15 16 17 17 15 14 13 13 13 14 14 14 14 14 14
27 26 26 27 27 24 22 24 23 21 21 19 17 17 19 19 19 20 20 20 19 18 18 16 14 14 14 15 15 14 15 15 15 14 14 14 14 15 14 13 12 10 9 7 6 4 1 2 4 8 7 6 7 8 9 10 11 9 9 10 7 8 9 9 10 10 10 10 13 15 16 17 16 16 15 14 13 13 13 13 14 14 14 14 14
26 25 26 26 27 26 24 25 24 22 24 21 17 16 18 19 18 20 20 18 18 18 17 17 15 14 15 16 16 16 16 17 15 15 14 14 11 13 13 12 11 10 8 6 4 4 5 3 1 7 8 7 8 8 7 8 9 8 7 9 9 7 9 12 12 11 11 11 12 15 16 16 17 16 15 14 13 12 12 12 13 13 13 13 13
26 25 26 26 27 27 25 26 24 24 26 23 19 16 18 21 19 19 20 17 16 16 15 17 17 16 16 18 18 18 18 18 16 16 13 12 11 10 10 9 9 8 7 6 5 5 8 6 5 9 9 8 10 10 8 9 11 10 8 9 9 9 10 11 10 8 9 10 10 13 15 16 16 16 16 15 14 12 12 13 13 12 13 13 13
26 27 27 26 27 27 26 27 25 25 27 24 22 17 18 23 20 18 22 19 17 17 16 17 17 17 18 21 21 19 19 18 16 16 14 13 14 12 10 10 10 9 9 11 7 7 9 8 7 9 9 9 10 9 8 9 9 7 7 8 9 9 8 7 7 8 9 10 10 11 15 16 15 15 16 16 15 13 12 12 13 13 12 13 13
25 26 27 25 26 29 28 27 26 26 27 25 24 19 17 24 22 19 24 22 20 21 19 19 18 17 18 21 22 20 20 18 16 17 17 16 17 17 16 15 13 13 12 14 9 10 10 9 10 11 12 10 9 8 6 7 7 6 6 7 8 9 8 9 11 10 9 10 10 11 14 15 14 14 15 16 15 13 12 12 12 12 12 12 13
27 27 27 24 27 30 28 27 26 26 27 26 25 23 20 24 23 21 24 22 21 22 20 20 20 18 17 19 21 20 21 19 18 18 18 17 18 20 20 17 14 15 14 12 8 9 10 10 11 12 11 9 8 7 5 6 5 6 6 6 8 10 12 11 11 10 9 10 11 10 11 12 13 14 14 15 14 13 13 12 12 12 11 12 12
28 28 26 26 29 29 28 28 27 25 28 27 25 25 24 24 24 23 24 22 21 22 19 18 18 16 16 18 20 20 21 19 18 20 19 18 19 18 18 16 14 15 13 11 9 10 10 10 10 10 8 5 5 4 5 6 6 6 6 7 10 11 11 10 9 10 11 10 10 9 10 10 11 12 13 13 13 13 13 13 13 12 11 12 13
26 28 26 27 30 29 29 29 27 27 28 28 26 25 24 23 24 23 22 22 23 22 19 18 16 15 16 18 19 19 20 18 18 20 18 17 18 15 15 15 12 11 11 12 13 11 10 9 8 8 5 3 5 5 5 5 7 7 7 10 11 10 12 10 8 10 11 10 9 9 8 9 9 9 10 12 12 12 13 14 14 13 13 13 13
25 29 28 27 28 29 31 30 27 28 28 27 27 25 23 23 22 23 23 23 23 21 20 19 15 16 18 19 18 19 19 19 18 20 17 14 15 14 14 12 10 12 13 12 12 10 10 9 7 6 4 3 4 6 5 6 8 8 9 11 9 10 11 9 7 8 9 10 9 9 8 8 9 9 9 10 10 11 12 13 14 15 15 13 13
25 28 28 27 28 28 30 30 29 29 28 27 26 25 25 22 20 23 24 23 23 21 19 17 14 15 18 17 18 20 19 19 19 19 17 13 15 15 13 12 13 15 14 11 10 9 8 7 6 6 4 4 4 5 7 9 9 9 10 10 8 9 10 8 8 8 8 10 8 6 7 8 9 11 10 7 7 9 11 12 14 14 13 14 14
27 27 28 29 29 29 29 29 29 29 28 28 26 24 24 22 21 23 23 22 22 21 17 15 15 15 15 15 18 21 20 19 19 19 19 15 14 14 15 16 16 16 13 9 9 9 7 6 6 6 3 4 4 6 9 9 9 9 9 9 8 9 11 11 10 9 7 7 7 6 5 6 9 13 12 9 8 9 10 11 12 12 13 14 15
28 27 30 31 29 30 30 28 28 28 27 28 28 24 23 23 23 23 23 21 22 21 16 17 18 16 17 17 17 21 21 19 19 20 21 18 14 15 16 17 16 14 11 9 9 8 7 6 6 5 4 6 5 5 9 9 8 9 9 8 9 12 13 11 12 11 5 4 8 6 6 7 8 9 7 8 11 11 11 10 11 13 14 15 15
29 28 30 33 30 29 31 28 27 28 27 28 29 25 24 25 24 24 23 22 22 21 19 20 20 19 20 18 17 21 22 20 19 20 21 19 16 17 18 16 16 14 11 10 9 7 6 6 6 6 6 7 6 7 9 9 9 8 8 7 10 12 10 10 13 9 2 5 7 5 8 5 2 4 5 8 12 12 12 8 9 10 12 14 14
29 28 27 31 31 28 28 27 27 28 28 28 30 27 26 27 25 25 25 24 23 21 22 23 21 20 19 17 17 20 22 21 19 19 21 20 19 19 18 17 16 14 11 10 8 6 6 6 6 7 7 7 7 9 10 10 9 7 7 9 9 8 7 10 11 8 4 6 4 5 7 7 6 8 8 10 10 11 12 7 4 5 8 12 12
31 29 25 27 29 27 24 27 28 29 30 30 31 28 27 29 28 27 26 25 23 23 24 23 20 19 16 17 18 18 21 22 19 20 21 21 21 19 18 17 15 13 12 10 9 7 7 7 7 7 7 6 6 9 10 8 7 8 8 7 5 3 6 9 9 8 6 4 4 5 10 9 9 10 9 10 7 9 12 8 6 8 9 10 10
33 32 27 24 26 27 25 26 29 29 30 29 28 26 26 28 29 27 25 24 24 23 23 21 20 19 17 19 19 18 19 21 20 20 21 21 22 20 18 16 14 13 12 11 10 8 8 8 7 7 5 4 5 8 11 8 7 9 8 5 5 2 7 6 6 7 4 3 5 7 8 7 9 10 11 10 5 7 10 8 8 9 10 10 8
33 31 29 26 25 28 27 26 28 30 29 27 26 25 24 25 26 26 25 24 24 23 21 20 20 21 20 20 20 18 19 21 22 22 20 20 21 20 16 14 13 13 11 10 9 7 7 7 5 6 3 1 3 7 11 11 10 8 5 2 3 2 4 4 5 4 3 6 6 5 5 6 8 11 13 9 5 7 6 7 9 10 11 10 7
31 29 30 31 29 29 28 26 27 29 28 27 26 25 24 24 23 23 23 22 22 22 20 19 21 23 22 22 23 22 22 24 24 21 18 17 18 18 14 13 13 11 11 10 7 6 7 6 3 5 3 6 3 5 8 11 11 9 5 1 0 1 2 4 6 4 3 6 4 4 6 6 7 12 12 10 8 7 4 5 8 11 12 9 5
31 30 31 34 33 30 28 25 25 26 26 26 25 24 23 24 23 22 21 20 20 22 22 20 21 23 23 25 26 24 25 25 22 18 16 15 16 15 13 12 12 12 12 10 9 9 8 5 3 3 3 7 7 3 3 8 10 11 7 3 1 1 4 7 7 3 2 4 3 3 7 6 7 10 10 9 9 7 5 4 8 12 12 9 6
30 31 32 35 35 31 28 25 23 24 23 24 24 24 23 24 25 23 22 22 21 22 24 21 21 23 24 26 25 24 24 24 21 18 15 14 13 13 13 13 13 13 13 11 11 12 8 4 4 3 3 4 4 4 1 4 7 10 8 5 2 2 5 7 7 5 4 4 3 3 6 6 7 9 7 6 7 8 8 6 6 11 11 9 8
29 30 33 34 33 31 28 25 23 23 23 24 24 25 25 25 26 25 24 24 23 23 23 22 21 22 24 24 24 24 25 24 21 19 17 15 12 13 15 14 15 15 14 13 12 12 10 8 7 8 7 5 3 6 4 1 3 6 5 4 4 3 5 7 7 8 9 9 6 3 5 8 8 7 4 5 9 10 10 6 4 7 9 8 7
29 30 33 34 32 29 27 26 23 21 24 25 24 26 26 25 25 24 24 24 25 23 23 23 21 21 23 22 23 25 24 23 21 19 18 16 14 15 16 16 17 15 12 12 11 9 9 9 9 9 8 7 6 8 7 3 3 2 2 1 3 4 4 6 7 8 10 12 9 5 6 8 7 5 3 7 10 9 9 7 5 5 7 6 6
29 30 31 32 31 29 27 25 23 21 24 26 25 26 25 23 23 24 23 24 25 24 24 25 23 22 23 22 22 24 23 22 20 19 17 15 15 16 17 17 15 12 11 10 9 8 7 7 8 7 7 7 8 9 10 6 8 6 3 2 1 2 2 3 4 6 9 10 9 8 7 8 7 5 4 6 7 6 7 6 4 5 6 8 11
29 29 27 30 30 29 28 26 24 23 24 24 25 26 25 23 24 24 25 26 28 28 26 26 25 23 23 22 23 24 23 21 19 18 16 15 15 15 16 16 12 11 10 8 7 8 7 8 8 7 6 6 5 9 10 7 7 6 3 3 1 2 3 3 5 8 8 6 9 9 6 9 9 4 3 4 3 4 4 4 3 6 8 11 15
28 27 25 28 30 29 28 26 25 25 24 23 24 25 26 25 24 25 28 30 31 31 28 26 25 23 22 22 24 26 25 21 19 18 17 15 16 16 16 14 12 11 10 7 5 6 7 9 8 7 7 6 4 5 8 8 6 2 1 2 1 1 3 4 7 8 6 5 8 6 6 10 7 2 3 2 1 1 1 3 5 9 11 13 17
Wind_Direction
190 186 185 177 171 166 165 166 166 168 164 158 151 149 150 146 141 136 131 132 135 134 127 122 120 121 124 120 117 113 112 113 113 114 113 111 109 110 110 110 109 109 106 104 102 98 93 91 90 91 91 90 91 89 89 90 87 82 74 71 75 81 84 86 84 80 78 76 74 73 74 75 74 71 69 65 65 65 59 53 50 51 54 53 51
190 183 185 180 173 168 167 168 168 169 165 161 154 151 151 147 141 137 133 134 136 136 128 123 124 125 127 123 118 114 113 114 116 116 115 114 113 113 113 112 111 109 107 105 102 97 91 89 88 89 90 90 91 90 90 88 84 80 74 78 85 87 87 86 81 77 74 74 72 68 65 66 67 64 64 60 57 54 49 44 43 45 49 50 48
196 178 184 183 175 170 169 170 170 170 168 162 154 154 151 147 142 138 135 136 138 136 131 126 128 131 131 125 119 116 113 116 120 120 118 118 117 117 117 114 112 110 108 105 102 97 91 90 88 89 92 92 91 90 89 86 84 80 82 91 93 91 88 84 79 73 70 70 69 66 61 56 59 58 55 54 53 49 45 41 41 42 42 43 45
201 177 184 182 178 171 170 171 172 171 169 164 155 155 152 149 143 140 139 138 141 137 134 132 135 136 134 127 121 117 115 119 123 123 122 121 121 119 118 116 113 112 110 108 104 97 92 90 89 92 94 92 89 87 86 85 83 84 92 99 98 93 88 82 77 71 66 60 55 56 54 46 49 53 53 49 49 48 44 41 41 41 39 39 38
205 182 182 181 180 172 172 172 173 173 170 165 157 156 153 151 145 143 142 140 142 141 140 136 141 141 138 131 125 122 120 125 125 125 124 122 124 121 120 119 117 116 113 109 103 95 91 91 93 95 93 90 86 84 83 85 88 94 101 103 101 95 89 83 77 73 68 62 54 47 35 30 40 44 48 45 44 45 40 37 38 39 36 38 36
210 184 182 182 181 173 173 174 174 175 171 167 159 157 154 152 148 147 145 143 146 145 143 141 145 146 142 134 128 127 125 129 129 129 127 126 127 126 125 124 123 120 115 109 100 91 91 93 95 96 93 90 86 85 86 91 96 100 104 105 102 97 92 87 81 75 70 68 63 61 30 8 25 28 36 37 35 38 37 33 32 36 34 35 34
214 184 183 183 182 176 173 176 176 176 173 169 162 158 156 154 151 150 148 146 151 148 145 145 148 151 146 136 131 128 128 134 134 132 130 130 130 131 129 128 129 125 119 109 96 89 93 94 94 97 95 93 90 90 92 96 100 103 105 105 103 98 93 88 84 78 70 63 57 76 50 330 5 13 22 27 25 33 37 34 30 35 32 32 32
215 183 184 184 184 178 174 177 177 177 175 171 164 160 159 156 154 153 152 151 153 149 147 148 151 155 147 137 133 130 134 142 142 138 136 135 134 136 133 132 134 130 122 107 94 86 91 97 97 100 98 95 94 95 97 100 103 105 106 105 102 97 91 84 81 78 71 62 59 85 74 326 10 12 13 22 19 30 37 38 34 36 32 30 30
207 182 184 185 185 180 177 178 178 179 176 173 167 163 161 158 158 156 156 156 154 150 150 152 154 156 148 141 138 136 141 150 152 146 141 139 139 143 140 138 139 134 122 106 94 84 94 103 103 106 103 98 98 100 100 103 105 107 107 106 102 96 91 84 81 79 74 67 67 96 61 349 15 12 13 21 20 30 37 44 42 40 36 30 28
188 180 186 186 185 183 180 179 180 181 178 174 168 165 164 162 160 160 160 158 155 152 153 154 155 157 152 148 146 143 150 160 161 156 149 144 145 149 145 141 142 137 123 107 97 93 103 108 109 111 109 104 103 104 104 106 107 108 108 108 105 98 91 84 83 81 79 69 49 51 7 344 2 8 15 18 21 31 35 42 43 41 38 32 28
169 177 187 187 184 185 182 181 183 182 180 175 169 167 165 165 163 162 162 160 157 155 157 155 156 161 158 155 156 155 161 168 169 167 159 151 151 152 146 143 144 139 126 111 109 110 114 116 115 116 115 112 109 108 107 108 108 111 111 112 109 100 91 86 84 80 80 66 42 27 335 358 6 4 13 15 18 24 31 36 37 37 34 31 26
158 173 190 186 183 187 185 184 185 184 181 176 172 169 169 169 166 165 164 163 160 159 160 156 158 165 163 163 166 166 169 170 172 175 169 161 159 159 154 151 149 141 130 120 124 123 123 123 120 120 121 117 114 112 111 110 111 114 116 116 110 101 95 94 91 83 83 66 64 93 296 350 355 1 16 15 13 13 22 24 27 29 25 26 22
155 176 193 186 183 187 188 186 186 186 182 178 174 170 172 172 168 167 166 166 163 164 164 159 163 169 170 170 170 168 169 167 169 176 176 171 167 165 163 160 157 148 138 131 133 131 129 128 126 127 128 125 121 118 115 113 114 117 121 120 112 108 102 99 96 85 83 75 79 238 293 344 346 5 17 12 7 4 5 3 6 8 9 14 15
166 184 192 185 185 186 188 189 187 187 184 181 177 173 175 174 172 170 169 169 168 168 167 163 167 174 175 174 170 167 167 163 164 175 180 177 173 171 169 169 164 150 140 137 137 136 134 133 132 132 134 133 128 124 120 119 120 121 124 122 119 118 110 102 94 80 70 71 58 295 319 356 358 7 3 3 356 352 348 346 348 344 350 347 357
181 189 191 186 183 183 187 189 189 189 186 183 179 176 175 177 175 173 173 171 171 171 170 167 167 175 179 175 171 166 165 164 166 176 181 181 178 175 175 175 164 149 142 141 141 140 138 138 139 139 141 140 136 131 127 128 131 131 132 130 128 128 112 92 92 87 75 60 23 283 317 336 345 360 345 348 343 344 338 332 337 328 330 325 329
191 190 194 191 182 181 186 187 190 190 186 184 180 178 176 180 178 177 177 174 175 173 172 171 168 175 180 179 171 165 165 168 172 177 182 185 184 178 178 177 166 156 150 146 144 144 142 144 145 146 148 147 146 139 139 142 145 146 140 138 131 130 106 86 96 92 80 91 291 275 307 325 334 348 332 331 328 328 326 321 321 316 313 310 312
191 192 199 195 185 180 183 186 189 189 186 183 180 179 178 182 183 181 179 177 178 175 176 172 170 178 183 183 170 168 172 173 176 179 185 187 189 183 180 181 174 164 155 150 148 149 148 148 150 153 157 157 157 150 153 154 156 158 145 142 116 107 95 86 96 92 79 338 294 274 294 317 326 342 335 327 324 320 319 317 313 310 306 303 305
185 195 200 190 183 179 182 185 186 185 183 181 179 180 180 186 186 184 182 180 180 177 180 174 175 181 184 184 172 177 183 180 177 180 188 190 192 188 184 184 177 167 159 155 153 154 153 152 153 155 161 164 167 164 167 169 170 170 154 150 113 104 85 75 75 84 30 302 296 268 287 306 312 328 335 331 327 325 321 319 315 311 308 305 304
181 196 190 177 176 177 183 184 184 184 182 181 178 178 181 188 188 187 185 181 180 179 181 177 179 185 187 188 182 185 189 192 184 185 191 191 194 192 189 187 178 170 163 162 158 159 158 156 156 156 163 167 174 179 185 189 193 204 202 210 182 246 69 88 43 24 328 300 280 274 292 296 300 314 328 332 328 328 324 321 319 315 314 311 309
180 189 174 167 169 175 183 183 183 184 182 182 179 178 178 185 189 188 186 181 180 180 182 180 182 189 192 194 194 191 196 201 196 197 195 191 195 194 193 189 180 172 167 168 164 164 161 160 161 161 169 171 181 189 196 205 214 244 273 288 282 283 271 184 31 4 327 309 287 284 294 293 300 311 320 327 323 324 322 320 318 316 317 316 314
173 179 172 167 166 174 184 182 184 183 181 183 181 179 175 179 186 185 184 181 178 179 181 180 185 194 198 204 207 202 204 205 201 204 198 194 198 194 195 193 184 177 172 173 170 171 169 170 171 173 180 183 198 207 231 240 299 331 335 325 315 299 277 343 3 330 298 311 298 293 298 299 304 307 313 319 318 318 317 317 315 314 315 314 315
168 174 172 169 168 176 183 181 183 182 181 183 183 181 175 177 181 181 180 177 176 176 178 179 185 195 199 209 216 212 211 206 203 205 199 198 199 194 197 195 188 181 178 180 179 181 180 182 184 186 199 217 237 310 326 330 353 345 343 337 330 309 284 351 340 306 295 302 297 294 294 296 299 303 309 311 312 312 312 313 311 311 310 310 312
170 174 173 173 173 178 182 182 182 180 180 181 183 183 177 179 179 179 178 173 174 174 176 179 187 198 198 210 218 210 205 201 204 206 203 201 199 196 198 196 193 186 185 188 189 193 194 196 201 208 226 243 320 1 348 334 335 332 338 339 336 324 314 355 321 311 316 300 291 287 286 291 297 302 305 305 304 304 306 308 307 307 306 307 309
173 176 175 176 177 179 179 181 182 178 179 178 182 185 181 180 179 178 177 173 175 175 177 184 191 199 202 214 212 189 184 202 213 209 205 204 200 199 199 195 195 193 192 196 200 203 204 208 203 206 303 332 18 17 357 330 317 320 333 333 332 340 349 341 310 304 301 290 288 288 291 294 297 302 304 301 297 297 301 301 302 304 304 307 309
175 177 176 176 179 182 177 177 181 177 175 177 184 187 183 181 178 178 177 176 179 179 180 187 193 198 207 216 200 174 172 206 233 218 207 208 204 201 200 196 195 199 200 201 206 202 196 201 182 77 24 1 356 1 0 330 303 311 319 320 326 335 337 312 286 292 294 286 288 293 296 297 299 305 307 303 296 294 297 297 299 300 302 306 308
175 181 178 176 182 184 180 179 182 178 173 176 185 188 184 180 178 179 179 181 184 183 182 188 195 200 212 211 190 178 170 194 237 227 207 211 206 202 202 200 198 202 201 202 210 200 171 116 318 351 360 346 337 332 328 306 297 302 300 303 315 315 310 292 282 295 298 287 291 296 297 300 303 308 310 305 297 293 293 295 296 297 299 302 306
176 184 181 175 181 184 183 182 182 176 171 176 185 188 185 180 180 182 184 187 186 186 187 189 198 204 213 206 186 183 174 184 231 232 205 208 206 201 202 203 204 205 199 200 213 216 253 14 350 325 320 318 314 305 294 293 300 304 291 273 268 291 293 279 273 275 276 280 290 293 297 303 307 310 312 306 299 296 293 293 293 294 296 298 302
177 185 182 175 179 182 184 184 182 175 171 178 186 187 182 178 183 186 187 189 187 190 194 191 197 203 207 204 186 189 183 177 220 232 201 198 200 204 205 203 208 205 199 194 191 224 258 246 257 273 273 277 268 266 269 267 267 274 289 270 251 271 280 274 276 279 285 291 294 297 303 308 309 312 316 314 307 301 297 295 294 293 295 296 298
179 184 181 175 177 181 183 183 181 175 175 180 187 185 175 180 190 188 185 187 187 188 197 193 196 203 202 205 194 192 185 173 213 224 190 188 193 206 206 202 212 196 210 223 180 213 248 228 215 243 253 262 256 246 247 252 249 253 281 286 276 283 285 289 300 304 298 297 302 305 305 304 307 315 319 320 317 309 303 300 298 295 295 297 298
182 186 184 178 177 180 183 185 182 177 177 178 187 188 172 183 195 187 182 186 185 184 195 192 198 214 207 206 199 191 178 172 214 209 177 190 191 196 192 198 213 178 219 245 190 200 242 235 229 247 251 253 257 251 254 271 274 274 287 291 294 304 305 303 295 285 288 294 297 294 292 296 306 316 319 320 321 318 312 304 300 298 299 301 303
183 186 185 180 178 180 184 188 186 179 177 174 184 191 174 183 196 189 183 186 185 183 192 191 199 222 218 210 197 186 172 172 216 202 179 197 192 191 187 194 206 174 209 240 204 202 225 231 233 243 249 245 256 266 268 280 289 296 295 289 295 298 283 272 273 277 287 290 289 289 294 302 312 317 318 319 321 322 320 314 306 303 305 307 308
186 187 185 181 179 181 183 189 188 180 177 173 181 191 179 184 198 195 185 187 187 184 192 196 205 221 223 214 194 183 173 175 211 200 187 202 193 196 193 190 197 185 204 221 215 229 224 229 239 244 252 251 258 272 274 278 295 298 294 295 285 276 271 276 287 287 283 284 290 297 300 307 312 312 313 317 320 319 320 322 319 313 310 310 310
186 187 188 185 182 183 184 190 191 182 178 175 183 192 185 188 200 197 187 187 188 185 191 200 210 216 217 213 195 189 181 179 205 197 192 202 196 203 199 191 197 199 209 200 203 235 229 231 245 251 258 266 277 298 303 297 304 292 283 280 272 272 278 285 290 285 287 292 297 299 303 308 307 308 313 315 316 317 321 325 326 320 313 311 311
185 186 188 188 185 184 185 190 192 186 180 175 183 193 190 194 199 194 188 189 189 185 190 200 207 205 214 218 203 199 190 187 203 196 195 201 199 203 195 195 200 202 215 203 204 227 232 236 249 260 268 287 298 318 322 302 293 292 284 273 271 274 280 289 299 303 311 312 309 307 307 304 298 305 309 305 310 320 325 326 325 322 321 322 320
186 185 187 191 187 184 187 194 193 187 183 177 182 190 190 196 196 190 188 192 191 187 195 204 205 201 216 227 213 206 197 196 205 196 189 192 197 196 188 192 192 202 218 211 213 228 233 237 244 254 254 244 281 305 298 276 276 284 279 276 283 288 294 313 320 316 312 301 304 310 305 294 285 288 289 294 315 326 325 325 321 322 327 334 334
189 187 189 194 190 185 187 194 194 188 184 180 183 188 191 195 193 190 193 195 192 194 203 207 207 209 220 228 215 208 201 201 209 196 178 182 201 192 181 186 192 209 221 214 217 225 229 238 238 247 248 229 255 274 258 256 268 273 278 290 305 305 309 314 295 286 287 291 304 314 310 303 296 306 311 310 317 316 317 321 317 323 337 341 339
191 189 190 193 190 184 184 191 196 191 184 182 185 189 191 195 193 191 196 197 197 205 209 200 202 214 222 222 212 206 200 202 210 197 176 179 199 188 181 193 201 213 218 215 216 216 225 235 235 246 256 249 261 267 259 261 270 279 296 313 315 304 301 297 291 284 285 307 300 279 292 302 319 336 341 332 319 312 313 318 322 338 349 341 337
190 191 193 194 190 183 181 190 197 191 185 182 185 188 189 194 197 196 199 199 201 207 203 194 199 209 220 223 216 208 200 200 206 197 183 179 186 190 194 200 207 214 214 215 214 209 218 228 237 246 252 258 263 273 278 283 290 303 322 325 308 304 307 318 320 301 286 296 278 292 346 345 348 350 346 331 327 327 318 322 348 356 346 337 334
191 193 195 196 194 184 180 187 193 190 186 182 183 187 189 194 198 198 199 199 203 204 193 194 200 204 214 221 219 211 202 201 202 195 188 182 184 198 203 203 210 213 210 213 210 203 214 227 240 248 258 268 273 278 286 299 311 323 333 317 304 313 331 349 343 332 333 273 283 359 3 349 349 290 292 318 321 325 322 334 10 358 337 330 328
191 190 191 194 193 185 182 187 192 192 187 183 183 186 191 194 196 197 197 197 202 200 192 195 201 203 210 211 216 215 205 202 197 191 192 187 189 203 205 204 210 209 207 209 199 195 214 228 242 254 267 277 282 283 289 308 319 325 320 303 310 328 334 336 342 15 31 297 330 19 302 272 262 272 297 317 317 322 323 334 357 320 313 318 325
188 188 186 187 188 186 189 190 191 193 190 186 183 186 193 193 194 198 196 197 201 200 196 196 197 201 205 203 214 220 208 202 197 196 198 194 196 205 205 207 208 204 205 200 187 194 219 230 242 256 271 286 297 300 305 320 323 313 307 312 355 354 289 306 335 9 14 346 9 317 282 285 291 287 292 299 319 329 321 327 321 309 313 318 333
185 188 188 188 188 190 198 194 188 192 191 187 185 187 194 194 193 198 197 198 202 202 202 201 196 197 202 203 214 220 205 200 202 202 202 199 202 205 205 205 202 200 200 193 187 193 220 235 243 258 276 303 314 316 319 331 329 312 311 350 40 350 268 289 340 356 358 344 331 300 288 313 313 304 299 298 328 327 316 330 327 323 327 328 343
186 189 190 194 195 193 200 198 191 193 190 187 189 189 194 197 196 198 199 200 204 206 208 208 198 194 200 205 211 212 198 196 203 204 203 204 204 204 205 202 197 199 193 193 197 193 221 238 242 259 267 28 326 314 319 328 340 333 325 4 25 325 275 308 347 349 313 302 320 332 331 333 317 310 315 321 314 295 312 349 334 323 326 329 343
192 192 191 196 201 197 197 195 190 193 190 186 190 191 194 198 199 201 203 204 207 209 209 210 201 192 197 205 208 205 196 200 207 205 206 211 211 207 206 204 199 199 193 192 195 194 221 226 213 258 219 143 199 278 308 322 345 354 344 357 32 325 330 338 344 339 324 322 325 353 346 334 310 311 327 338 324 311 340 360 330 319 324 324 326
194 193 193 197 202 200 194 190 190 192 191 188 190 194 194 197 199 200 203 203 206 208 206 207 204 196 198 205 206 203 199 204 208 203 203 211 219 218 213 212 202 196 198 192 185 193 214 217 191 265 237 176 195 219 306 320 343 349 354 42 112 12 349 344 353 334 323 4 10 344 335 317 306 321 335 336 328 333 341 337 329 329 331 323 319
193 193 195 199 201 198 194 192 194 192 189 189 192 194 195 198 198 197 200 200 203 207 205 205 204 200 203 207 208 206 203 205 204 198 199 203 219 228 221 221 213 203 201 190 188 194 193 189 175 187 233 228 195 164 223 327 342 344 1 38 34 351 334 342 359 330 311 353 6 5 347 328 321 332 341 330 321 332 338 344 346 339 338 335 339
193 195 198 201 200 198 197 196 194 190 187 191 194 195 197 200 201 200 201 200 203 208 207 206 206 204 208 208 209 210 207 206 204 198 201 199 206 225 227 224 217 207 197 186 190 195 182 181 195 198 214 245 211 170 170 342 342 342 359 21 16 7 343 347 346 322 317 324 332 357 338 331 335 337 343 328 324 336 345 352 357 339 336 345 350
192 196 198 201 201 201 200 196 192 189 188 191 195 196 198 202 204 204 206 206 207 211 211 210 208 209 213 211 210 214 210 207 204 203 204 197 193 212 224 222 212 198 188 186 190 198 199 204 217 220 219 240 241 191 167 166 213 275 325 18 16 9 348 338 320 310 310 312 327 339 316 327 345 345 340 326 327 340 352 1 2 336 332 335 315
193 197 197 198 200 201 200 195 192 192 190 191 195 197 196 201 206 207 211 213 213 216 217 213 208 208 214 214 212 214 211 205 202 203 201 193 191 201 211 215 205 186 181 192 194 194 211 226 228 229 227 241 237 188 170 178 196 215 229 155 20 331 278 285 281 282 291 304 324 326 326 348 349 333 322 329 342 353 358 13 7 325 323 313 298
196 198 195 195 198 198 197 194 192 194 192 189 195 199 197 202 208 209 211 214 216 217 217 214 209 208 212 214 213 211 209 204 202 203 200 196 197 199 206 208 194 180 184 192 197 195 209 230 234 233 225 235 227 180 177 185 182 203 221 163 153 284 257 250 250 262 273 297 313 313 340 345 328 325 333 331 3 9 5 28 341 307 307 301 296
193 195 191 193 196 195 192 192 193 195 193 189 194 199 200 205 211 211 210 213 217 217 215 213 209 208 210 212 212 208 202 198 199 200 197 199 199 197 202 200 185 185 188 188 202 213 227 236 240 235 209 207 222 179 180 185 157 127 293 164 138 291 268 252 253 265 269 285 302 312 341 327 310 336 359 338 71 107 75 8 326 307 305 302 301
Height
1502 1504 1507 1507 1509 1509 1511 1512 1513 1514 1515 1516 1517 1518 1518 1520 1521 1522 1524 1525 1526 1527 1528 1529 1530 1531 1532 1532 1532 1533 1533 1533 1534 1535 1535 1536 1536 1537 1537 1538 1538 1538 1539 1539 1539 1540 1540 1541 1541 1541 1542 1542 1542 1542 1543 1543 1543 1543 1543 1544 1544 1544 1544 1544 1545 1545 1545 1545 1545 1546 1546 1546 1546 1546 1546 1545 1545 1545 1545 1545 1544 1544 1544 1543 1543
1499 1503 1505 1507 1508 1509 1511 1512 1514 1514 1515 1516 1517 1518 1519 1520 1521 1523 1524 1526 1527 1528 1528 1529 1530 1531 1532 1532 1533 1533 1534 1534 1535 1536 1536 1537 1537 1538 1538 1539 1539 1540 1540 1540 1540 1541 1542 1542 1542 1542 1543 1543 1543 1543 1543 1544 1544 1544 1544 1545 1545 1545 1545 1546 1546 1546 1546 1546 1546 1547 1547 1547 1547 1547 1547 1547 1546 1546 1546 1546 1545 1545 1544 1544 1544
1498 1502 1504 1507 1508 1508 1510 1512 1513 1514 1516 1516 1517 1518 1519 1520 1521 1523 1524 1526 1527 1528 1529 1529 1531 1532 1533 1533 1534 1534 1535 1535 1536 1537 1537 1538 1538 1539 1539 1540 1540 1541 1541 1541 1541 1542 1542 1543 1543 1543 1544 1544 1544 1544 1544 1544 1545 1545 1545 1546 1546 1546 1547 1547 1547 1547 1547 1547 1547 1548 1548 1549 1548 1548 1548 1548 1547 1547 1547 1546 1546 1546 1545 1545 1545
1499 1501 1503 1506 1507 1508 1510 1511 1513 1514 1516 1516 1518 1519 1520 1521 1521 1523 1524 1526 1527 1528 1529 1530 1531 1532 1533 1534 1534 1535 1536 1536 1537 1538 1538 1539 1539 1540 1540 1541 1541 1542 1542 1542 1542 1543 1543 1544 1544 1544 1545 1545 1545 1545 1545 1545 1545 1546 1546 1546 1547 1547 1548 1548 1548 1548 1549 1548 1548 1548 1548 1550 1550 1550 1549 1549 1549 1548 1548 1547 1547 1546 1546 1546 1545
1499 1500 1502 1505 1507 1508 1510 1511 1513 1514 1516 1517 1518 1519 1520 1521 1522 1523 1525 1526 1527 1529 1529 1530 1532 1533 1534 1534 1535 1536 1536 1537 1538 1538 1539 1540 1540 1541 1541 1542 1543 1543 1543 1543 1543 1544 1544 1544 1545 1545 1545 1545 1546 1546 1546 1546 1546 1546 1547 1547 1548 1548 1549 1549 1550 1550 1550 1550 1550 1549 1549 1550 1551 1550 1550 1550 1549 1549 1549 1548 1548 1547 1547 1547 1546
1498 1500 1502 1504 1506 1508 1509 1511 1513 1514 1515 1516 1517 1519 1520 1521 1522 1523 1525 1526 1528 1529 1529 1531 1532 1533 1534 1535 1536 1536 1537 1538 1539 1539 1540 1541 1541 1542 1542 1543 1543 1544 1544 1544 1544 1544 1545 1545 1545 1546 1546 1546 1546 1546 1546 1547 1547 1547 1548 1548 1549 1549 1550 1550 1551 1551 1551 1551 1551 1551 1550 1551 1552 1551 1551 1551 1550 1550 1549 1549 1548 1548 1547 1547 1547
1498 1500 1501 1503 1506 1507 1509 1511 1512 1514 1515 1516 1517 1519 1520 1521 1522 1523 1525 1526 1528 1529 1530 1531 1532 1534 1535 1536 1536 1537 1538 1539 1539 1540 1540 1541 1542 1542 1543 1543 1544 1545 1545 1545 1545 1545 1546 1546 1546 1546 1547 1547 1547 1547 1547 1548 1548 1548 1549 1549 1550 1550 1551 1551 1551 1552 1552 1553 1553 1553 1552 1552 1553 1552 1552 1551 1551 1550 1550 1550 1549 1548 1548 1548 1547
1498 1500 1501 1503 1505 1507 1509 1510 1512 1514 1515 1516 1517 1518 1520 1521 1522 1523 1525 1526 1528 1529 1530 1531 1532 1534 1535 1536 1537 1538 1538 1539 1540 1540 1541 1542 1542 1543 1543 1544 1545 1545 1545 1546 1546 1546 1546 1547 1547 1547 1547 1548 1548 1548 1548 1549 1549 1549 1550 1550 1551 1551 1552 1552 1552 1553 1553 1553 1554 1554 1554 1553 1553 1553 1552 1552 1551 1551 1550 1550 1550 1549 1549 1548 1548
1498 1500 1501 1503 1505 1507 1509 1510 1512 1513 1515 1516 1517 1518 1520 1521 1522 1524 1525 1526 1528 1529 1530 1531 1533 1534 1535 1536 1537 1538 1539 1540 1540 1541 1542 1542 1543 1543 1544 1545 1545 1546 1546 1546 1546 1547 1547 1547 1548 1548 1548 1549 1549 1549 1549 1550 1550 1550 1551 1551 1552 1552 1553 1553 1553 1553 1553 1554 1555 1555 1554 1553 1553 1553 1553 1552 1552 1551 1551 1551 1550 1550 1549 1549 1548
1498 1499 1501 1503 1505 1507 1508 1511 1512 1513 1515 1516 1517 1518 1520 1521 1522 1524 1525 1526 1528 1529 1530 1531 1533 1534 1536 1536 1537 1538 1539 1540 1541 1541 1542 1543 1544 1544 1545 1545 1546 1546 1547 1547 1547 1547 1547 1548 1548 1549 1549 1549 1550 1550 1550 1551 1551 1551 1552 1552 1552 1553 1553 1554 1554 1554 1554 1555 1556 1555 1554 1554 1554 1553 1553 1553 1552 1552 1551 1551 1550 1550 1550 1549 1549
1498 1499 1500 1502 1505 1507 1509 1511 1512 1514 1515 1516 1517 1518 1520 1521 1522 1524 1525 1526 1528 1529 1530 1532 1533 1535 1536 1537 1537 1538 1539 1540 1541 1542 1542 1543 1544 1545 1545 1546 1546 1547 1547 1547 1547 1548 1548 1549 1549 1550 1550 1550 1551 1551 1551 1552 1552 1552 1553 1553 1553 1554 1554 1554 1554 1554 1554 1556 1556 1555 1554 1554 1554 1554 1553 1553 1553 1552 1552 1551 1551 1551 1550 1550 1550
1498 1499 1499 1502 1505 1507 1509 1510 1512 1514 1514 1516 1517 1518 1520 1521 1523 1524 1525 1526 1528 1529 1530 1532 1533 1535 1536 1537 1537 1538 1539 1540 1541 1542 1543 1544 1544 1545 1546 1546 1547 1547 1547 1548 1548 1549 1549 1549 1550 1550 1551 1551 1551 1552 1552 1552 1553 1553 1554 1554 1554 1555 1555 1555 1555 1555 1555 1557 1557 1555 1554 1554 1554 1554 1553 1553 1553 1553 1552 1552 1551 1551 1551 1550 1550
1499 1498 1498 1501 1504 1506 1508 1510 1512 1513 1514 1516 1516 1518 1520 1521 1523 1524 1525 1526 1528 1529 1530 1532 1533 1535 1536 1537 1537 1538 1539 1540 1541 1542 1543 1544 1545 1545 1546 1547 1547 1547 1548 1548 1549 1549 1549 1550 1550 1551 1551 1552 1552 1552 1553 1553 1554 1554 1554 1555 1555 1555 1555 1555 1555 1555 1556 1557 1557 1555 1555 1555 1554 1554 1554 1553 1553 1553 1553 1552 1552 1551 1551 1551 1550
1497 1496 1498 1501 1503 1506 1508 1510 1512 1513 1514 1515 1516 1518 1519 1521 1522 1524 1525 1526 1528 1529 1530 1532 1534 1535 1536 1537 1537 1538 1539 1540 1541 1542 1543 1544 1545 1546 1546 1547 1547 1548 1548 1548 1549 1550 1550 1550 1550 1551 1552 1552 1553 1553 1553 1554 1554 1555 1555 1555 1555 1555 1555 1556 1555 1556 1557 1557 1557 1555 1555 1555 1555 1554 1554 1554 1553 1553 1553 1552 1552 1552 1551 1551 1550
1495 1496 1498 1500 1502 1505 1507 1510 1511 1513 1514 1515 1516 1518 1519 1521 1522 1524 1525 1527 1528 1529 1531 1532 1534 1535 1536 1537 1537 1539 1540 1540 1541 1542 1544 1544 1545 1546 1547 1547 1548 1548 1548 1549 1549 1550 1550 1551 1551 1551 1552 1553 1553 1554 1554 1554 1555 1555 1555 1555 1556 1556 1556 1556 1555 1555 1557 1558 1557 1555 1555 1555 1555 1555 1554 1554 1554 1553 1553 1553 1552 1552 1551 1551 1550
1495 1497 1498 1500 1502 1504 1507 1509 1511 1512 1514 1515 1516 1518 1519 1521 1523 1524 1526 1527 1528 1530 1531 1532 1534 1535 1536 1537 1538 1539 1540 1541 1541 1542 1544 1545 1545 1546 1547 1548 1548 1548 1549 1549 1550 1551 1551 1551 1552 1552 1552 1553 1553 1554 1554 1555 1555 1555 1556 1556 1556 1556 1556 1556 1556 1555 1557 1558 1557 1555 1555 1555 1555 1555 1554 1554 1554 1553 1553 1552 1552 1552 1551 1551 1550
1496 1496 1498 1500 1501 1503 1505 1508 1510 1512 1513 1515 1516 1518 1520 1521 1523 1524 1526 1527 1529 1530 1531 1532 1534 1535 1536 1537 1538 1539 1540 1541 1541 1542 1543 1544 1545 1546 1547 1548 1548 1549 1549 1549 1550 1551 1551 1552 1552 1552 1553 1553 1554 1554 1555 1555 1555 1556 1556 1556 1556 1556 1556 1556 1556 1556 1557 1558 1557 1555 1555 1555 1555 1555 1554 1554 1554 1553 1553 1552 1552 1551 1551 1550 1550
1495 1495 1497 1499 1500 1502 1504 1506 1509 1511 1513 1514 1516 1518 1520 1521 1523 1524 1526 1527 1528 1530 1531 1533 1534 1535 1536 1537 1538 1539 1539 1540 1541 1542 1543 1544 1545 1546 1547 1548 1548 1549 1549 1550 1550 1551 1552 1552 1552 1553 1553 1554 1554 1554 1555 1555 1556 1556 1556 1556 1556 1556 1556 1556 1556 1556 1556 1557 1557 1555 1555 1555 1555 1554 1554 1554 1553 1553 1552 1552 1551 1551 1550 1550 1550
1495 1495 1496 1498 1499 1502 1503 1505 1508 1509 1511 1513 1515 1517 1520 1521 1523 1524 1526 1527 1528 1530 1531 1533 1534 1535 1536 1537 1538 1539 1539 1540 1541 1542 1543 1544 1545 1546 1547 1548 1548 1549 1550 1550 1551 1552 1552 1553 1553 1553 1554 1554 1555 1555 1555 1556 1556 1556 1556 1556 1556 1556 1556 1556 1556 1556 1557 1557 1556 1555 1555 1555 1555 1554 1554 1553 1553 1552 1552 1551 1551 1550 1550 1550 1550
1495 1496 1497 1498 1499 1501 1502 1504 1506 1508 1511 1512 1515 1517 1519 1521 1523 1524 1526 1527 1528 1530 1531 1532 1534 1535 1536 1537 1538 1538 1539 1540 1541 1542 1542 1544 1544 1546 1547 1547 1548 1549 1550 1551 1551 1552 1553 1553 1554 1554 1554 1555 1555 1555 1555 1556 1556 1556 1556 1556 1556 1556 1556 1556 1555 1555 1557 1557 1555 1555 1555 1554 1554 1554 1553 1553 1552 1552 1551 1551 1550 1550 1550 1549 1549
1495 1496 1497 1498 1500 1501 1501 1503 1505 1508 1510 1512 1514 1516 1518 1521 1523 1524 1526 1527 1528 1530 1531 1532 1534 1535 1536 1537 1537 1538 1538 1539 1540 1541 1542 1543 1544 1545 1546 1547 1548 1549 1550 1550 1551 1552 1553 1553 1553 1554 1554 1555 1555 1555 1556 1556 1556 1556 1556 1556 1556 1556 1555 1555 1555 1555 1556 1557 1555 1554 1554 1554 1554 1553 1553 1553 1552 1552 1551 1550 1550 1549 1549 1549 1549
1495 1496 1498 1498 1500 1500 1501 1503 1505 1507 1509 1511 1513 1515 1518 1520 1522 1523 1525 1527 1528 1530 1531 1532 1533 1534 1535 1536 1537 1537 1538 1539 1540 1541 1541 1542 1543 1545 1546 1547 1548 1549 1550 1550 1551 1552 1552 1553 1553 1554 1554 1554 1555 1555 1555 1555 1556 1556 1556 1556 1556 1555 1555 1554 1555 1556 1555 1556 1555 1554 1554 1553 1553 1553 1552 1552 1551 1551 1550 1550 1549 1549 1549 1548 1548
1494 1496 1497 1499 1500 1500 1501 1503 1504 1506 1509 1511 1513 1515 1517 1519 1521 1522 1524 1526 1528 1529 1530 1531 1532 1533 1535 1536 1536 1537 1538 1538 1539 1540 1541 1542 1543 1544 1545 1547 1548 1548 1549 1550 1551 1551 1552 1553 1553 1554 1554 1554 1554 1555 1555 1555 1555 1555 1555 1555 1555 1555 1555 1554 1555 1555 1555 1555 1554 1553 1553 1553 1552 1552 1551 1551 1551 1550 1550 1550 1549 1548 1548 1548 1547
1493 1494 1496 1499 1500 1500 1501 1503 1504 1506 1508 1510 1512 1514 1516 1518 1520 1522 1523 1525 1527 1528 1530 1531 1532 1533 1534 1535 1536 1537 1538 1538 1539 1540 1540 1541 1542 1544 1545 1546 1547 1548 1549 1550 1550 1551 1552 1552 1553 1553 1554 1554 1554 1554 1554 1553 1554 1554 1555 1555 1555 1555 1554 1553 1554 1555 1555 1555 1553 1553 1553 1552 1552 1551 1551 1550 1549 1549 1549 1549 1548 1548 1547 1547 1547
1491 1492 1495 1498 1500 1500 1501 1503 1504 1506 1508 1510 1512 1513 1515 1517 1519 1521 1522 1524 1526 1527 1529 1530 1531 1532 1533 1534 1535 1537 1538 1539 1539 1540 1540 1540 1542 1543 1544 1545 1546 1547 1548 1549 1550 1551 1551 1552 1553 1553 1554 1554 1554 1554 1553 1553 1554 1554 1554 1554 1554 1553 1553 1554 1555 1555 1554 1554 1553 1552 1552 1551 1551 1550 1550 1549 1548 1548 1548 1548 1547 1547 1546 1546 1546
1491 1491 1493 1496 1499 1500 1501 1502 1504 1506 1508 1509 1511 1513 1514 1516 1518 1520 1521 1523 1525 1527 1528 1529 1530 1532 1533 1534 1535 1536 1537 1539 1538 1539 1540 1540 1541 1543 1544 1545 1546 1547 1548 1549 1549 1550 1551 1552 1552 1553 1553 1554 1554 1554 1553 1555 1555 1554 1554 1554 1553 1553 1554 1554 1554 1554 1554 1553 1552 1551 1551 1550 1550 1549 1549 1548 1547 1547 1547 1546 1546 1546 1545 1545 1544
1490 1490 1491 1495 1497 1500 1501 1502 1504 1506 1508 1510 1511 1512 1514 1516 1517 1519 1521 1522 1524 1526 1527 1529 1530 1531 1532 1533 1534 1535 1536 1538 1538 1538 1539 1540 1541 1542 1544 1545 1546 1547 1547 1548 1549 1549 1551 1551 1551 1552 1553 1554 1554 1554 1555 1555 1555 1554 1554 1554 1554 1554 1554 1553 1553 1553 1553 1552 1551 1550 1550 1549 1549 1548 1548 1547 1546 1546 1545 1545 1545 1544 1544 1544 1543
1489 1490 1490 1493 1496 1499 1500 1502 1503 1505 1507 1509 1510 1511 1514 1515 1516 1518 1520 1521 1523 1525 1526 1528 1529 1530 1531 1532 1533 1534 1535 1537 1537 1537 1538 1539 1540 1542 1543 1544 1545 1546 1547 1549 1549 1550 1551 1551 1552 1553 1554 1554 1554 1554 1555 1555 1554 1554 1553 1553 1553 1553 1552 1552 1552 1551 1551 1551 1550 1549 1548 1548 1548 1547 1546 1546 1545 1544 1544 1544 1543 1543 1543 1542 1542
1488 1489 1489 1492 1495 1498 1500 1501 1502 1504 1506 1508 1510 1511 1513 1514 1516 1517 1519 1521 1522 1524 1525 1526 1528 1529 1530 1531 1532 1533 1534 1536 1536 1536 1538 1539 1541 1542 1543 1544 1545 1546 1547 1549 1549 1550 1552 1552 1553 1554 1554 1554 1553 1553 1553 1553 1553 1553 1553 1552 1552 1552 1551 1551 1550 1550 1550 1550 1549 1548 1547 1547 1546 1545 1545 1545 1544 1543 1543 1542 1542 1542 1541 1541 1541
1488 1489 1489 1491 1494 1497 1499 1500 1501 1504 1506 1508 1509 1510 1512 1514 1515 1517 1518 1520 1522 1523 1524 1525 1526 1527 1528 1529 1530 1531 1533 1535 1536 1536 1537 1539 1541 1542 1544 1545 1546 1547 1548 1549 1550 1551 1552 1552 1552 1553 1553 1553 1552 1552 1552 1552 1552 1552 1552 1552 1552 1551 1551 1550 1550 1550 1549 1549 1548 1547 1546 1545 1545 1544 1544 1543 1543 1542 1542 1541 1541 1540 1540 1540 1539
1487 1488 1488 1491 1493 1496 1498 1499 1501 1503 1504 1507 1508 1510 1511 1513 1514 1516 1517 1519 1521 1522 1523 1525 1525 1525 1526 1527 1528 1529 1531 1534 1535 1535 1537 1539 1540 1542 1544 1545 1546 1548 1549 1549 1549 1550 1551 1552 1552 1552 1552 1552 1551 1551 1551 1551 1551 1551 1552 1552 1551 1550 1549 1549 1548 1548 1548 1548 1547 1546 1545 1544 1544 1543 1543 1542 1541 1541 1540 1540 1540 1539 1539 1538 1538
1486 1487 1487 1490 1492 1495 1497 1498 1499 1502 1503 1506 1508 1509 1511 1513 1514 1515 1516 1518 1520 1521 1522 1523 1524 1524 1525 1526 1527 1528 1530 1532 1534 1535 1537 1538 1540 1541 1543 1545 1546 1547 1548 1549 1549 1550 1550 1551 1551 1551 1551 1551 1551 1551 1551 1551 1551 1551 1551 1551 1551 1549 1548 1548 1548 1547 1547 1546 1546 1545 1545 1544 1543 1542 1542 1541 1541 1540 1539 1539 1539 1538 1538 1537 1537
1484 1486 1487 1489 1491 1493 1496 1497 1498 1501 1502 1505 1507 1508 1510 1512 1513 1514 1516 1517 1519 1520 1521 1522 1523 1523 1523 1524 1526 1527 1529 1531 1533 1534 1536 1537 1539 1540 1542 1544 1545 1546 1547 1548 1549 1549 1549 1550 1550 1550 1550 1550 1550 1551 1550 1550 1550 1550 1550 1550 1549 1548 1547 1547 1547 1546 1546 1545 1545 1544 1544 1543 1542 1541 1541 1540 1540 1539 1538 1538 1538 1537 1537 1536 1535
1483 1485 1486 1487 1489 1492 1494 1495 1497 1500 1501 1504 1506 1507 1509 1511 1512 1514 1515 1516 1518 1519 1520 1521 1522 1522 1522 1523 1525 1527 1529 1531 1532 1534 1536 1537 1538 1540 1542 1544 1545 1546 1546 1547 1547 1548 1549 1549 1549 1550 1550 1550 1550 1550 1550 1550 1549 1549 1549 1548 1547 1547 1546 1546 1546 1545 1545 1544 1544 1543 1543 1543 1542 1541 1540 1539 1539 1538 1538 1537 1537 1536 1536 1535 1534
1482 1484 1485 1486 1488 1491 1493 1494 1496 1498 1500 1502 1505 1507 1508 1510 1511 1513 1514 1515 1517 1518 1519 1520 1521 1522 1522 1523 1525 1527 1529 1530 1532 1534 1536 1537 1539 1540 1542 1543 1545 1545 1545 1545 1546 1547 1548 1548 1548 1549 1549 1549 1550 1550 1550 1549 1548 1548 1547 1546 1546 1545 1545 1545 1545 1545 1544 1544 1543 1542 1542 1541 1541 1540 1539 1538 1538 1538 1537 1536 1536 1535 1534 1534 1533
1481 1483 1485 1485 1486 1490 1491 1493 1495 1497 1499 1501 1504 1506 1508 1509 1511 1512 1513 1515 1516 1517 1518 1519 1520 1521 1521 1523 1524 1526 1529 1530 1532 1534 1536 1537 1539 1540 1542 1543 1544 1543 1543 1544 1545 1546 1547 1547 1547 1548 1548 1548 1549 1549 1548 1547 1547 1546 1545 1545 1545 1544 1544 1543 1543 1543 1543 1543 1542 1542 1541 1540 1539 1539 1538 1538 1537 1537 1536 1536 1535 1534 1534 1533 1532
1480 1482 1483 1483 1485 1488 1490 1491 1493 1496 1499 1501 1503 1505 1507 1509 1510 1512 1513 1514 1515 1516 1517 1519 1519 1520 1521 1523 1524 1526 1528 1530 1531 1533 1535 1537 1539 1540 1541 1542 1542 1542 1543 1544 1544 1545 1546 1546 1547 1547 1547 1548 1548 1548 1546 1546 1545 1544 1544 1543 1543 1543 1542 1542 1542 1542 1542 1542 1541 1541 1540 1540 1539 1538 1537 1537 1537 1536 1535 1535 1534 1534 1534 1533 1532
1479 1481 1482 1482 1484 1487 1489 1490 1492 1495 1498 1500 1503 1505 1507 1508 1509 1510 1512 1512 1514 1515 1516 1518 1519 1520 1521 1522 1524 1526 1528 1530 1531 1533 1535 1537 1539 1540 1540 1540 1541 1541 1542 1543 1544 1544 1545 1545 1546 1546 1546 1547 1546 1546 1545 1544 1544 1543 1542 1542 1542 1541 1540 1540 1540 1540 1540 1541 1540 1540 1540 1540 1539 1538 1537 1537 1536 1536 1535 1534 1534 1534 1533 1532 1532
1478 1479 1480 1482 1483 1486 1488 1490 1492 1495 1498 1500 1502 1504 1505 1507 1508 1509 1510 1511 1512 1513 1515 1516 1517 1519 1520 1522 1523 1525 1528 1529 1531 1533 1535 1536 1538 1538 1539 1539 1540 1541 1542 1542 1543 1543 1544 1545 1545 1545 1545 1546 1546 1545 1544 1543 1542 1542 1541 1541 1540 1540 1539 1539 1539 1538 1539 1540 1539 1540 1540 1539 1539 1538 1537 1537 1536 1535 1535 1534 1534 1534 1533 1532 1531
1476 1478 1478 1480 1482 1485 1487 1489 1492 1494 1496 1498 1500 1501 1503 1504 1505 1506 1507 1508 1510 1511 1513 1515 1516 1518 1519 1521 1523 1525 1527 1529 1531 1533 1534 1535 1536 1536 1537 1539 1540 1541 1541 1542 1542 1543 1543 1544 1544 1545 1545 1545 1545 1544 1543 1542 1541 1541 1540 1539 1539 1539 1539 1539 1539 1538 1539 1539 1539 1539 1539 1538 1538 1537 1537 1536 1536 1535 1534 1534 1534 1534 1533 1532 1531
1475 1477 1478 1479 1482 1484 1486 1488 1491 1493 1494 1495 1497 1499 1500 1501 1503 1503 1505 1507 1508 1510 1512 1514 1515 1517 1519 1521 1523 1524 1527 1529 1531 1532 1533 1534 1534 1534 1535 1537 1539 1540 1541 1541 1542 1542 1543 1544 1544 1544 1544 1544 1544 1543 1542 1542 1540 1539 1539 1538 1538 1538 1538 1539 1539 1538 1539 1539 1539 1539 1538 1538 1537 1537 1536 1536 1536 1535 1534 1533 1533 1533 1532 1531 1531
1472 1475 1477 1479 1481 1483 1484 1486 1489 1490 1492 1494 1496 1498 1499 1500 1502 1503 1505 1506 1507 1509 1511 1513 1515 1517 1519 1521 1522 1524 1526 1529 1531 1532 1533 1533 1533 1534 1535 1536 1538 1539 1540 1541 1541 1541 1542 1543 1543 1543 1544 1543 1543 1542 1541 1540 1540 1538 1538 1538 1538 1537 1537 1538 1538 1538 1538 1539 1539 1538 1538 1538 1537 1536 1536 1535 1535 1535 1533 1533 1532 1532 1532 1531 1530
1471 1474 1477 1479 1480 1482 1483 1485 1487 1489 1492 1494 1496 1498 1499 1501 1502 1503 1505 1506 1507 1509 1511 1513 1514 1516 1518 1520 1522 1524 1526 1528 1529 1530 1533 1534 1535 1535 1535 1536 1537 1538 1539 1540 1540 1541 1542 1542 1543 1543 1543 1543 1543 1541 1540 1539 1539 1538 1537 1537 1537 1537 1537 1538 1538 1538 1538 1538 1538 1537 1537 1537 1537 1535 1535 1535 1534 1534 1533 1533 1532 1531 1531 1531 1530
1470 1472 1476 1477 1478 1480 1481 1484 1487 1489 1492 1493 1495 1497 1500 1501 1503 1504 1506 1507 1508 1510 1512 1513 1514 1516 1517 1519 1520 1522 1524 1525 1527 1529 1533 1536 1538 1537 1537 1537 1537 1538 1538 1539 1540 1541 1542 1542 1542 1541 1542 1542 1542 1541 1539 1538 1538 1537 1537 1536 1536 1537 1538 1538 1538 1538 1538 1538 1537 1537 1537 1537 1536 1535 1534 1534 1533 1533 1533 1532 1531 1530 1530 1530 1529
1468 1470 1474 1475 1476 1478 1480 1483 1486 1489 1491 1492 1495 1497 1499 1501 1503 1504 1506 1507 1508 1509 1511 1512 1514 1516 1517 1517 1518 1519 1521 1524 1526 1530 1533 1536 1540 1541 1540 1539 1538 1537 1538 1538 1539 1541 1542 1541 1541 1541 1541 1541 1541 1540 1539 1538 1537 1537 1536 1536 1536 1537 1537 1537 1537 1537 1538 1538 1538 1538 1537 1536 1535 1535 1534 1534 1533 1532 1532 1532 1531 1530 1530 1529 1529
1467 1470 1472 1473 1475 1478 1480 1483 1486 1488 1490 1492 1495 1497 1498 1500 1501 1503 1504 1505 1507 1508 1509 1511 1513 1515 1516 1517 1518 1519 1521 1522 1525 1529 1531 1534 1540 1543 1542 1540 1538 1537 1538 1538 1539 1541 1541 1541 1541 1540 1539 1539 1539 1539 1538 1538 1537 1536 1535 1535 1536 1537 1537 1537 1537 1537 1537 1537 1537 1538 1537 1536 1535 1535 1534 1534 1533 1532 1532 1531 1531 1530 1529 1529 1528
1466 1468 1470 1472 1475 1478 1480 1482 1485 1487 1489 1492 1493 1495 1497 1499 1500 1502 1503 1504 1505 1506 1508 1510 1513 1514 1515 1516 1518 1519 1520 1521 1524 1527 1529 1531 1537 1541 1541 1540 1538 1537 1537 1538 1538 1539 1539 1539 1539 1539 1538 1538 1537 1538 1537 1537 1536 1535 1535 1535 1536 1536 1537 1537 1537 1537 1536 1536 1536 1537 1536 1535 1535 1534 1534 1533 1532 1532 1531 1531 1531 1530 1529 1528 1527
1465 1466 1468 1471 1474 1477 1479 1482 1484 1486 1488 1490 1492 1494 1496 1497 1499 1501 1502 1503 1504 1506 1507 1509 1511 1513 1514 1516 1517 1518 1519 1521 1522 1525 1527 1528 1532 1536 1538 1538 1537 1536 1536 1536 1536 1537 1538 1538 1538 1538 1537 1537 1536 1536 1536 1536 1536 1535 1535 1535 1535 1536 1537 1537 1537 1537 1536 1535 1535 1536 1535 1534 1535 1534 1533 1533 1532 1531 1531 1530 1530 1529 1528 1528 1526
1463 1465 1467 1470 1473 1475 1478 1480 1483 1485 1487 1489 1491 1492 1495 1496 1498 1500 1501 1503 1504 1505 1506 1507 1509 1510 1511 1514 1516 1517 1518 1520 1522 1524 1526 1527 1529 1532 1535 1537 1535 1534 1534 1534 1535 1536 1536 1537 1537 1537 1536 1535 1535 1535 1534 1534 1534 1534 1534 1534 1535 1535 1536 1537 1537 1537 1536 1535 1535 1535 1534 1534 1534 1534 1533 1533 1531 1530 1530 1530 1529 1529 1528 1527 1525
1462 1465 1467 1469 1472 1473 1476 1479 1481 1484 1485 1488 1490 1491 1493 1495 1496 1498 1499 1500 1501 1501 1503 1505 1506 1507 1509 1511 1513 1514 1517 1520 1522 1523 1524 1526 1528 1529 1532 1535 1533 1532 1533 1533 1534 1535 1536 1536 1536 1536 1536 1535 1534 1534 1533 1533 1533 1533 1533 1534 1534 1534 1535 1535 1535 1535 1535 1534 1534 1534 1534 1533 1533 1533 1533 1533 1532 1531 1530 1529 1529 1528 1528 1526 1524
1461 1465 1466 1467 1470 1472 1474 1477 1480 1482 1484 1486 1488 1490 1491 1492 1493 1494 1494 1495 1496 1497 1500 1502 1504 1506 1507 1509 1510 1511 1516 1520 1521 1521 1523 1526 1528 1527 1530 1533 1532 1531 1533 1533 1533 1534 1535 1535 1535 1535 1535 1534 1533 1533 1533 1532 1532 1533 1533 1533 1534 1534 1534 1534 1534 1534 1534 1534 1533 1533 1533 1533 1532 1532 1533 1533 1533 1532 1530 1529 1528 1527 1527 1525 1523